Time,TemperatureF,DewpointF,PressureIn,WindDirection,WindDirectionDegrees,WindSpeedMPH,WindSpeedGustMPH,Humidity,HourlyPrecipIn,Conditions,Clouds,dailyrainin,SoftwareType,DateUTC
2013-08-27 00:00:00,58.5,52.4,29.91,NW,324,0.0,1.0,80,0.00,,,0.00,Wunderground v.1.15,2013-08-27 07:00:00,
2013-08-27 00:05:00,58.4,53.3,29.92,NW,325,0.0,1.0,83,0.00,,,0.00,Wunderground v.1.15,2013-08-27 07:05:00,
2013-08-27 00:15:00,58.2,53.4,29.92,SSE,162,0.0,2.0,84,0.00,,,0.00,Wunderground v.1.15,2013-08-27 07:15:00,
2013-08-27 00:20:00,58.0,53.5,29.92,SSE,162,0.0,1.0,85,0.00,,,0.00,Wunderground v.1.15,2013-08-27 07:20:00,
2013-08-27 00:25:00,57.9,53.4,29.92,SSE,162,0.0,1.0,85,0.00,,,0.00,Wunderground v.1.15,2013-08-27 07:25:00,
2013-08-27 00:30:00,57.7,53.2,29.91,SSE,162,0.0,0.0,85,0.00,,,0.00,Wunderground v.1.15,2013-08-27 07:30:00,
2013-08-27 00:40:00,57.5,53.7,29.92,East,97,0.0,0.0,87,0.00,,,0.00,Wunderground v.1.15,2013-08-27 07:40:00,
2013-08-27 00:45:00,57.4,53.9,29.92,East,96,0.0,1.0,88,0.00,,,0.00,Wunderground v.1.15,2013-08-27 07:45:00,
2013-08-27 00:50:00,57.3,54.1,29.92,East,96,0.0,1.0,89,0.00,,,0.00,Wunderground v.1.15,2013-08-27 07:50:00,
2013-08-27 00:55:00,57.2,54.0,29.92,East,96,0.0,1.0,89,0.00,,,0.00,Wunderground v.1.15,2013-08-27 07:55:00,
2013-08-27 01:05:00,57.0,54.1,29.92,East,96,0.0,1.0,90,0.00,,,0.00,Wunderground v.1.15,2013-08-27 08:05:00,
2013-08-27 01:10:00,56.9,54.0,29.92,East,96,0.0,0.0,90,0.00,,,0.00,Wunderground v.1.15,2013-08-27 08:10:00,
2013-08-27 01:15:00,56.9,54.0,29.91,East,96,0.0,0.0,90,0.00,,,0.00,Wunderground v.1.15,2013-08-27 08:15:00,
2013-08-27 01:20:00,56.8,53.9,29.91,East,96,0.0,1.0,90,0.00,,,0.00,Wunderground v.1.15,2013-08-27 08:20:00,
2013-08-27 01:30:00,56.7,53.8,29.91,East,96,0.0,0.0,90,0.00,,,0.00,Wunderground v.1.15,2013-08-27 08:30:00,
2013-08-27 01:35:00,56.6,54.0,29.91,East,96,0.0,0.0,91,0.00,,,0.00,Wunderground v.1.15,2013-08-27 08:35:00,
2013-08-27 01:40:00,56.5,53.9,29.91,East,96,0.0,0.0,91,0.00,,,0.00,Wunderground v.1.15,2013-08-27 08:40:00,
2013-08-27 01:45:00,56.3,53.7,29.91,East,96,0.0,0.0,91,0.00,,,0.00,Wunderground v.1.15,2013-08-27 08:45:00,
2013-08-27 01:50:00,56.3,53.7,29.91,East,96,0.0,1.0,91,0.00,,,0.00,Wunderground v.1.15,2013-08-27 08:50:00,
2013-08-27 02:00:00,56.3,54.0,29.90,East,96,0.0,0.0,92,0.00,,,0.00,Wunderground v.1.15,2013-08-27 09:00:00,
2013-08-27 02:05:00,56.3,54.0,29.90,East,96,0.0,0.0,92,0.00,,,0.00,Wunderground v.1.15,2013-08-27 09:05:00,
2013-08-27 02:10:00,56.2,53.9,29.90,East,96,0.0,0.0,92,0.00,,,0.00,Wunderground v.1.15,2013-08-27 09:10:00,
2013-08-27 02:15:00,56.1,53.8,29.90,East,96,0.0,0.0,92,0.00,,,0.00,Wunderground v.1.15,2013-08-27 09:15:00,
2013-08-27 02:20:00,56.0,53.7,29.90,East,96,0.0,0.0,92,0.00,,,0.00,Wunderground v.1.15,2013-08-27 09:20:00,
2013-08-27 02:30:00,55.9,53.6,29.90,East,96,0.0,0.0,92,0.00,,,0.00,Wunderground v.1.15,2013-08-27 09:30:00,
2013-08-27 02:35:00,55.9,53.9,29.90,East,96,0.0,0.0,93,0.00,,,0.00,Wunderground v.1.15,2013-08-27 09:35:00,
2013-08-27 02:40:00,55.8,53.8,29.89,East,96,0.0,0.0,93,0.00,,,0.00,Wunderground v.1.15,2013-08-27 09:40:00,
2013-08-27 02:45:00,55.8,53.8,29.89,East,96,0.0,0.0,93,0.00,,,0.00,Wunderground v.1.15,2013-08-27 09:45:00,
2013-08-27 02:50:00,55.7,53.7,29.89,East,96,0.0,0.0,93,0.00,,,0.00,Wunderground v.1.15,2013-08-27 09:50:00,
2013-08-27 03:00:00,55.6,53.6,29.89,East,96,0.0,0.0,93,0.00,,,0.00,Wunderground v.1.15,2013-08-27 10:00:00,
2013-08-27 03:05:00,55.6,53.3,29.89,East,96,0.0,0.0,92,0.00,,,0.00,Wunderground v.1.15,2013-08-27 10:05:00,
2013-08-27 03:10:00,55.4,53.1,29.89,East,96,0.0,1.0,92,0.00,,,0.00,Wunderground v.1.15,2013-08-27 10:10:00,
2013-08-27 03:15:00,55.3,53.0,29.89,East,96,0.0,1.0,92,0.00,,,0.00,Wunderground v.1.15,2013-08-27 10:15:00,
2013-08-27 03:25:00,55.1,52.8,29.89,East,96,0.0,0.0,92,0.00,,,0.00,Wunderground v.1.15,2013-08-27 10:25:00,
2013-08-27 03:30:00,55.0,52.7,29.89,East,96,0.0,0.0,92,0.00,,,0.00,Wunderground v.1.15,2013-08-27 10:30:00,
2013-08-27 03:35:00,54.9,52.3,29.89,East,96,0.0,0.0,91,0.00,,,0.00,Wunderground v.1.15,2013-08-27 10:35:00,
2013-08-27 03:40:00,54.8,52.2,29.89,East,96,0.0,0.0,91,0.00,,,0.00,Wunderground v.1.15,2013-08-27 10:40:00,
2013-08-27 03:50:00,54.5,51.9,29.89,East,96,0.0,0.0,91,0.00,,,0.00,Wunderground v.1.15,2013-08-27 10:50:00,
2013-08-27 03:55:00,54.5,51.9,29.89,East,96,0.0,0.0,91,0.00,,,0.00,Wunderground v.1.15,2013-08-27 10:55:00,
2013-08-27 04:00:00,54.4,51.5,29.89,East,96,0.0,0.0,90,0.00,,,0.00,Wunderground v.1.15,2013-08-27 11:00:00,
2013-08-27 04:05:00,54.3,51.4,29.89,East,96,0.0,0.0,90,0.00,,,0.00,Wunderground v.1.15,2013-08-27 11:05:00,
2013-08-27 04:15:00,54.4,51.8,29.89,East,96,0.0,0.0,91,0.00,,,0.00,Wunderground v.1.15,2013-08-27 11:15:00,
2013-08-27 04:20:00,54.4,51.5,29.89,East,96,0.0,0.0,90,0.00,,,0.00,Wunderground v.1.15,2013-08-27 11:20:00,
2013-08-27 04:25:00,54.4,51.5,29.89,East,96,0.0,0.0,90,0.00,,,0.00,Wunderground v.1.15,2013-08-27 11:25:00,
2013-08-27 04:30:00,54.4,51.5,29.89,East,96,0.0,0.0,90,0.00,,,0.00,Wunderground v.1.15,2013-08-27 11:30:00,
2013-08-27 04:35:00,54.3,51.1,29.89,East,96,0.0,0.0,89,0.00,,,0.00,Wunderground v.1.15,2013-08-27 11:35:00,
2013-08-27 04:45:00,54.2,51.0,29.89,East,96,0.0,0.0,89,0.00,,,0.00,Wunderground v.1.15,2013-08-27 11:45:00,
2013-08-27 04:50:00,54.3,51.1,29.89,East,96,0.0,0.0,89,0.00,,,0.00,Wunderground v.1.15,2013-08-27 11:50:00,
2013-08-27 04:55:00,54.2,50.7,29.89,East,96,0.0,0.0,88,0.00,,,0.00,Wunderground v.1.15,2013-08-27 11:55:00,
2013-08-27 05:05:00,54.4,50.9,29.89,East,96,0.0,0.0,88,0.00,,,0.00,Wunderground v.1.15,2013-08-27 12:05:00,
2013-08-27 05:10:00,54.9,51.1,29.88,NNE,28,0.0,1.0,87,0.00,,,0.00,Wunderground v.1.15,2013-08-27 12:10:00,
2013-08-27 05:15:00,55.4,51.3,29.88,NNE,27,0.0,1.0,86,0.00,,,0.00,Wunderground v.1.15,2013-08-27 12:15:00,
2013-08-27 05:20:00,55.7,51.3,29.88,NNE,27,0.0,1.0,85,0.00,,,0.00,Wunderground v.1.15,2013-08-27 12:20:00,
2013-08-27 05:25:00,56.0,51.2,29.88,North,5,0.0,1.0,84,0.00,,,0.00,Wunderground v.1.15,2013-08-27 12:25:00,
2013-08-27 05:30:00,56.3,51.5,29.89,North,5,0.0,2.0,84,0.00,,,0.00,Wunderground v.1.15,2013-08-27 12:30:00,
2013-08-27 05:35:00,56.5,51.4,29.89,North,5,0.0,2.0,83,0.00,,,0.00,Wunderground v.1.15,2013-08-27 12:35:00,
2013-08-27 05:45:00,56.6,51.5,29.89,North,5,0.0,1.0,83,0.00,,,0.00,Wunderground v.1.15,2013-08-27 12:45:00,
2013-08-27 05:50:00,56.6,51.5,29.89,North,5,0.0,1.0,83,0.00,,,0.00,Wunderground v.1.15,2013-08-27 12:50:00,
2013-08-27 05:55:00,56.6,51.5,29.89,North,355,0.0,1.0,83,0.00,,,0.00,Wunderground v.1.15,2013-08-27 12:55:00,
2013-08-27 06:05:00,56.6,51.5,29.89,NNW,333,1.0,3.0,83,0.00,,,0.00,Wunderground v.1.15,2013-08-27 13:05:00,
2013-08-27 06:10:00,56.6,51.5,29.89,NNW,333,0.0,3.0,83,0.00,,,0.00,Wunderground v.1.15,2013-08-27 13:10:00,
2013-08-27 06:15:00,56.5,51.7,29.89,NNW,333,0.0,3.0,84,0.00,,,0.00,Wunderground v.1.15,2013-08-27 13:15:00,
2013-08-27 06:20:00,56.3,51.5,29.89,NNW,333,0.0,1.0,84,0.00,,,0.00,Wunderground v.1.15,2013-08-27 13:20:00,
2013-08-27 06:30:00,56.0,51.6,29.89,NNW,333,0.0,1.0,85,0.00,,,0.00,Wunderground v.1.15,2013-08-27 13:30:00,
2013-08-27 06:35:00,55.8,51.4,29.89,NNW,333,0.0,1.0,85,0.00,,,0.00,Wunderground v.1.15,2013-08-27 13:35:00,
2013-08-27 06:40:00,55.6,51.2,29.89,NNW,333,0.0,0.0,85,0.00,,,0.00,Wunderground v.1.15,2013-08-27 13:40:00,
2013-08-27 06:45:00,55.2,50.8,29.89,NNW,333,0.0,0.0,85,0.00,,,0.00,Wunderground v.1.15,2013-08-27 13:45:00,
2013-08-27 06:55:00,54.5,50.7,29.89,NNW,333,0.0,0.0,87,0.00,,,0.00,Wunderground v.1.15,2013-08-27 13:55:00,
2013-08-27 07:00:00,54.2,50.4,29.89,NNW,333,0.0,0.0,87,0.00,,,0.00,Wunderground v.1.15,2013-08-27 14:00:00,
2013-08-27 07:05:00,54.0,50.2,29.89,NNW,333,0.0,0.0,87,0.00,,,0.00,Wunderground v.1.15,2013-08-27 14:05:00,
2013-08-27 07:15:00,54.1,50.9,29.89,NNW,333,0.0,0.0,89,0.00,,,0.00,Wunderground v.1.15,2013-08-27 14:15:00,
2013-08-27 07:20:00,54.7,51.5,29.89,NNW,333,0.0,1.0,89,0.00,,,0.00,Wunderground v.1.15,2013-08-27 14:20:00,
2013-08-27 07:25:00,55.3,52.1,29.90,NNW,333,0.0,1.0,89,0.00,,,0.00,Wunderground v.1.15,2013-08-27 14:25:00,
2013-08-27 07:30:00,55.7,52.2,29.90,NNW,333,0.0,0.0,88,0.00,,,0.00,Wunderground v.1.15,2013-08-27 14:30:00,
2013-08-27 07:40:00,56.8,53.0,29.90,NNW,333,0.0,1.0,87,0.00,,,0.00,Wunderground v.1.15,2013-08-27 14:40:00,
2013-08-27 07:45:00,57.5,53.3,29.90,West,281,0.0,1.0,86,0.00,,,0.00,Wunderground v.1.15,2013-08-27 14:45:00,
2013-08-27 07:50:00,58.0,53.5,29.90,West,281,0.0,2.0,85,0.00,,,0.00,Wunderground v.1.15,2013-08-27 14:50:00,
2013-08-27 07:55:00,58.5,53.7,29.90,West,281,0.0,2.0,84,0.00,,,0.00,Wunderground v.1.15,2013-08-27 14:55:00,
2013-08-27 08:00:00,58.8,54.0,29.90,West,281,0.0,0.0,84,0.00,,,0.00,Wunderground v.1.15,2013-08-27 15:00:00,
2013-08-27 08:10:00,59.7,54.2,29.90,West,275,0.0,0.0,82,0.00,,,0.00,Wunderground v.1.15,2013-08-27 15:10:00,
2013-08-27 08:20:00,60.3,54.4,29.90,SSE,159,0.0,1.0,81,0.00,,,0.00,Wunderground v.1.15,2013-08-27 15:20:00,
2013-08-27 08:30:00,61.1,54.9,29.90,SSE,159,0.0,1.0,80,0.00,,,0.00,Wunderground v.1.15,2013-08-27 15:30:00,
2013-08-27 08:35:00,61.4,55.2,29.90,SSE,159,0.0,1.0,80,0.00,,,0.00,Wunderground v.1.15,2013-08-27 15:35:00,
2013-08-27 08:45:00,62.2,55.3,29.90,SSE,159,0.0,1.0,78,0.00,,,0.00,Wunderground v.1.15,2013-08-27 15:45:00,
2013-08-27 08:50:00,62.6,55.6,29.89,SSE,157,0.0,1.0,78,0.00,,,0.00,Wunderground v.1.15,2013-08-27 15:50:00,
2013-08-27 09:00:00,63.8,55.4,29.89,South,169,0.0,1.0,74,0.00,,,0.00,Wunderground v.1.15,2013-08-27 16:00:00,
2013-08-27 09:05:00,64.5,55.3,29.89,South,183,0.0,2.0,72,0.00,,,0.00,Wunderground v.1.15,2013-08-27 16:05:00,
2013-08-27 09:10:00,65.3,54.1,29.89,NW,321,1.0,3.0,67,0.00,,,0.00,Wunderground v.1.15,2013-08-27 16:10:00,
2013-08-27 09:15:00,66.1,54.0,29.90,NNW,330,1.0,5.0,65,0.00,,,0.00,Wunderground v.1.15,2013-08-27 16:15:00,
2013-08-27 09:20:00,66.8,54.2,29.89,WSW,256,1.0,5.0,64,0.00,,,0.00,Wunderground v.1.15,2013-08-27 16:20:00,
2013-08-27 09:25:00,67.4,53.9,29.90,NW,314,1.0,5.0,62,0.00,,,0.00,Wunderground v.1.15,2013-08-27 16:25:00,
2013-08-27 09:30:00,68.0,54.9,29.89,West,281,1.0,7.0,63,0.00,,,0.00,Wunderground v.1.15,2013-08-27 16:30:00,
2013-08-27 09:40:00,68.7,53.8,29.89,NNW,329,1.0,1.0,59,0.00,,,0.00,Wunderground v.1.15,2013-08-27 16:40:00,
2013-08-27 09:45:00,68.9,53.0,29.89,WNW,303,2.0,2.0,57,0.00,,,0.00,Wunderground v.1.15,2013-08-27 16:45:00,
2013-08-27 09:50:00,69.2,53.8,29.89,West,277,1.0,1.0,58,0.00,,,0.00,Wunderground v.1.15,2013-08-27 16:50:00,
2013-08-27 09:55:00,69.8,53.9,29.90,WNW,288,1.0,3.0,57,0.00,,,0.00,Wunderground v.1.15,2013-08-27 16:55:00,
2013-08-27 10:00:00,70.2,53.8,29.89,WNW,296,1.0,5.0,56,0.00,,,0.00,Wunderground v.1.15,2013-08-27 17:00:00,
2013-08-27 10:05:00,70.8,54.3,29.89,SW,232,1.0,5.0,56,0.00,,,0.00,Wunderground v.1.15,2013-08-27 17:05:00,
2013-08-27 10:10:00,71.8,54.8,29.89,SW,234,1.0,3.0,55,0.00,,,0.00,Wunderground v.1.15,2013-08-27 17:10:00,
2013-08-27 10:20:00,72.6,55.0,29.89,South,185,0.0,3.0,54,0.00,,,0.00,Wunderground v.1.15,2013-08-27 17:20:00,
2013-08-27 10:25:00,72.9,54.8,29.89,WSW,248,1.0,3.0,53,0.00,,,0.00,Wunderground v.1.15,2013-08-27 17:25:00,
2013-08-27 10:30:00,73.2,55.0,29.89,West,266,1.0,3.0,53,0.00,,,0.00,Wunderground v.1.15,2013-08-27 17:30:00,
2013-08-27 10:35:00,73.4,54.7,29.89,WSW,257,1.0,4.0,52,0.00,,,0.00,Wunderground v.1.15,2013-08-27 17:35:00,
2013-08-27 10:40:00,73.7,53.9,29.89,South,177,1.0,6.0,50,0.00,,,0.00,Wunderground v.1.15,2013-08-27 17:40:00,
2013-08-27 10:45:00,74.3,53.3,29.89,SSW,213,1.0,6.0,48,0.00,,,0.00,Wunderground v.1.15,2013-08-27 17:45:00,
2013-08-27 10:50:00,75.2,54.2,29.90,NNW,340,1.0,2.0,48,0.00,,,0.00,Wunderground v.1.15,2013-08-27 17:50:00,
2013-08-27 11:00:00,76.1,55.5,29.89,WNW,296,1.0,5.0,49,0.00,,,0.00,Wunderground v.1.15,2013-08-27 18:00:00,
2013-08-27 11:05:00,76.0,55.5,29.89,WSW,250,1.0,7.0,49,0.00,,,0.00,Wunderground v.1.15,2013-08-27 18:05:00,
2013-08-27 11:10:00,76.3,56.3,29.89,SSE,165,1.0,1.0,50,0.00,,,0.00,Wunderground v.1.15,2013-08-27 18:10:00,
2013-08-27 11:15:00,77.0,55.8,29.89,SW,235,1.0,4.0,48,0.00,,,0.00,Wunderground v.1.15,2013-08-27 18:15:00,
2013-08-27 11:20:00,78.1,55.6,29.89,WSW,242,1.0,1.0,46,0.00,,,0.00,Wunderground v.1.15,2013-08-27 18:20:00,
2013-08-27 11:25:00,78.3,55.8,29.89,WSW,246,1.0,4.0,46,0.00,,,0.00,Wunderground v.1.15,2013-08-27 18:25:00,
2013-08-27 11:30:00,78.6,55.5,29.89,South,180,1.0,2.0,45,0.00,,,0.00,Wunderground v.1.15,2013-08-27 18:30:00,
2013-08-27 11:35:00,79.0,55.2,29.89,SW,225,1.0,5.0,44,0.00,,,0.00,Wunderground v.1.15,2013-08-27 18:35:00,
2013-08-27 11:45:00,79.4,55.0,29.89,WSW,252,2.0,3.0,43,0.00,,,0.00,Wunderground v.1.15,2013-08-27 18:45:00,
2013-08-27 11:50:00,78.6,54.9,29.89,West,281,3.0,3.0,44,0.00,,,0.00,Wunderground v.1.15,2013-08-27 18:50:00,
2013-08-27 11:55:00,78.2,54.5,29.88,NW,313,2.0,6.0,44,0.00,,,0.00,Wunderground v.1.15,2013-08-27 18:55:00,
2013-08-27 12:00:00,78.9,56.4,29.88,WSW,239,1.0,6.0,46,0.00,,,0.00,Wunderground v.1.15,2013-08-27 19:00:00,
2013-08-27 12:05:00,80.0,56.7,29.88,SW,229,1.0,6.0,45,0.00,,,0.00,Wunderground v.1.15,2013-08-27 19:05:00,
2013-08-27 12:10:00,81.0,55.7,29.88,NW,319,1.0,5.0,42,0.00,,,0.00,Wunderground v.1.15,2013-08-27 19:10:00,
2013-08-27 12:15:00,81.0,55.7,29.88,West,281,1.0,7.0,42,0.00,,,0.00,Wunderground v.1.15,2013-08-27 19:15:00,
2013-08-27 12:20:00,80.8,56.9,29.87,WSW,254,1.0,6.0,44,0.00,,,0.00,Wunderground v.1.15,2013-08-27 19:20:00,
2013-08-27 12:30:00,82.4,57.0,29.87,West,263,1.0,1.0,42,0.00,,,0.00,Wunderground v.1.15,2013-08-27 19:30:00,
2013-08-27 12:35:00,83.0,56.9,29.87,WNW,300,1.0,2.0,41,0.00,,,0.00,Wunderground v.1.15,2013-08-27 19:35:00,
2013-08-27 12:40:00,83.0,56.2,29.87,West,260,1.0,5.0,40,0.00,,,0.00,Wunderground v.1.15,2013-08-27 19:40:00,
2013-08-27 12:50:00,83.1,55.6,29.87,WNW,283,1.0,4.0,39,0.00,,,0.00,Wunderground v.1.15,2013-08-27 19:50:00,
2013-08-27 12:55:00,83.1,56.3,29.87,SE,145,1.0,5.0,40,0.00,,,0.00,Wunderground v.1.15,2013-08-27 19:55:00,
2013-08-27 13:00:00,83.2,55.0,29.87,SSW,192,1.0,5.0,38,0.00,,,0.00,Wunderground v.1.15,2013-08-27 20:00:00,
2013-08-27 13:05:00,83.3,55.0,29.87,WSW,242,1.0,6.0,38,0.00,,,0.00,Wunderground v.1.15,2013-08-27 20:05:00,
2013-08-27 13:15:00,84.0,55.7,29.86,West,262,1.0,4.0,38,0.00,,,0.00,Wunderground v.1.15,2013-08-27 20:15:00,
2013-08-27 13:20:00,84.1,54.3,29.86,West,263,1.0,1.0,36,0.00,,,0.00,Wunderground v.1.15,2013-08-27 20:20:00,
2013-08-27 13:25:00,83.9,54.1,29.86,West,271,1.0,2.0,36,0.00,,,0.00,Wunderground v.1.15,2013-08-27 20:25:00,
2013-08-27 13:30:00,82.8,53.9,29.86,WSW,252,2.0,8.0,37,0.00,,,0.00,Wunderground v.1.15,2013-08-27 20:30:00,
2013-08-27 13:35:00,82.0,53.2,29.86,NW,307,3.0,9.0,37,0.00,,,0.00,Wunderground v.1.15,2013-08-27 20:35:00,
2013-08-27 13:40:00,81.8,53.7,29.86,West,265,3.0,3.0,38,0.00,,,0.00,Wunderground v.1.15,2013-08-27 20:40:00,
2013-08-27 13:45:00,82.1,54.7,29.86,WSW,248,2.0,9.0,39,0.00,,,0.00,Wunderground v.1.15,2013-08-27 20:45:00,
2013-08-27 13:55:00,82.7,53.0,29.86,North,350,2.0,8.0,36,0.00,,,0.00,Wunderground v.1.15,2013-08-27 20:55:00,
2013-08-27 14:00:00,82.9,54.0,29.86,WNW,302,1.0,1.0,37,0.00,,,0.00,Wunderground v.1.15,2013-08-27 21:00:00,
2013-08-27 14:05:00,83.2,52.7,29.86,WNW,301,1.0,3.0,35,0.00,,,0.00,Wunderground v.1.15,2013-08-27 21:05:00,
2013-08-27 14:10:00,82.5,52.9,29.86,NW,321,2.0,7.0,36,0.00,,,0.00,Wunderground v.1.15,2013-08-27 21:10:00,
2013-08-27 14:15:00,82.0,53.2,29.85,WSW,246,3.0,9.0,37,0.00,,,0.00,Wunderground v.1.15,2013-08-27 21:15:00,
2013-08-27 14:20:00,81.7,53.6,29.86,WNW,296,3.0,9.0,38,0.00,,,0.00,Wunderground v.1.15,2013-08-27 21:20:00,
2013-08-27 14:35:00,82.7,52.3,29.85,SW,218,1.0,6.0,35,0.00,,,0.00,Wunderground v.1.15,2013-08-27 21:35:00,
2013-08-27 14:40:00,82.8,51.6,29.85,West,263,1.0,1.0,34,0.00,,,0.00,Wunderground v.1.15,2013-08-27 21:40:00,
2013-08-27 14:45:00,82.4,52.8,29.85,North,355,2.0,2.0,36,0.00,,,0.00,Wunderground v.1.15,2013-08-27 21:45:00,
2013-08-27 14:55:00,83.3,52.8,29.84,West,269,1.0,8.0,35,0.00,,,0.00,Wunderground v.1.15,2013-08-27 21:55:00,
2013-08-27 15:05:00,82.8,51.6,29.84,West,281,3.0,10.0,34,0.00,,,0.00,Wunderground v.1.15,2013-08-27 22:05:00,
2013-08-27 15:10:00,83.0,52.5,29.84,West,281,2.0,7.0,35,0.00,,,0.00,Wunderground v.1.15,2013-08-27 22:10:00,
2013-08-27 15:15:00,83.1,54.1,29.84,West,277,2.0,7.0,37,0.00,,,0.00,Wunderground v.1.15,2013-08-27 22:15:00,
2013-08-27 15:25:00,83.7,54.7,29.84,West,275,2.0,5.0,37,0.00,,,0.00,Wunderground v.1.15,2013-08-27 22:25:00,
2013-08-27 15:30:00,84.3,53.7,29.84,West,272,2.0,2.0,35,0.00,,,0.00,Wunderground v.1.15,2013-08-27 22:30:00,
2013-08-27 15:35:00,84.4,54.5,29.84,WSW,253,1.0,3.0,36,0.00,,,0.00,Wunderground v.1.15,2013-08-27 22:35:00,
2013-08-27 15:40:00,83.4,53.6,29.83,West,275,2.0,11.0,36,0.00,,,0.00,Wunderground v.1.15,2013-08-27 22:40:00,
2013-08-27 15:50:00,83.6,55.3,29.83,SW,221,2.0,6.0,38,0.00,,,0.00,Wunderground v.1.15,2013-08-27 22:50:00,
2013-08-27 15:55:00,83.4,54.4,29.84,WSW,241,2.0,10.0,37,0.00,,,0.00,Wunderground v.1.15,2013-08-27 22:55:00,
2013-08-27 16:00:00,83.1,54.9,29.83,WSW,252,2.0,7.0,38,0.00,,,0.00,Wunderground v.1.15,2013-08-27 23:00:00,
2013-08-27 16:05:00,83.4,55.8,29.83,West,270,2.0,7.0,39,0.00,,,0.00,Wunderground v.1.15,2013-08-27 23:05:00,
2013-08-27 16:10:00,82.7,55.2,29.83,NW,312,2.0,6.0,39,0.00,,,0.00,Wunderground v.1.15,2013-08-27 23:10:00,
2013-08-27 16:15:00,81.9,55.2,29.83,NW,326,3.0,9.0,40,0.00,,,0.00,Wunderground v.1.15,2013-08-27 23:15:00,
2013-08-27 16:25:00,81.1,55.2,29.83,WNW,302,3.0,13.0,41,0.00,,,0.00,Wunderground v.1.15,2013-08-27 23:25:00,
2013-08-27 16:30:00,80.5,55.9,29.83,WNW,287,3.0,3.0,43,0.00,,,0.00,Wunderground v.1.15,2013-08-27 23:30:00,
2013-08-27 16:35:00,80.6,55.4,29.83,WNW,294,3.0,9.0,42,0.00,,,0.00,Wunderground v.1.15,2013-08-27 23:35:00,
2013-08-27 16:40:00,81.0,55.7,29.83,West,265,2.0,2.0,42,0.00,,,0.00,Wunderground v.1.15,2013-08-27 23:40:00,
2013-08-27 16:55:00,79.6,56.4,29.83,WNW,298,3.0,11.0,45,0.00,,,0.00,Wunderground v.1.15,2013-08-27 23:55:00,
2013-08-27 17:00:00,79.0,56.5,29.83,WNW,295,3.0,10.0,46,0.00,,,0.00,Wunderground v.1.15,2013-08-28 00:00:00,
2013-08-27 17:05:00,78.2,56.3,29.83,South,184,4.0,12.0,47,0.00,,,0.00,Wunderground v.1.15,2013-08-28 00:05:00,
2013-08-27 17:15:00,78.4,56.5,29.83,WNW,293,2.0,7.0,47,0.00,,,0.00,Wunderground v.1.15,2013-08-28 00:15:00,
2013-08-27 17:20:00,78.9,56.4,29.83,WNW,286,1.0,4.0,46,0.00,,,0.00,Wunderground v.1.15,2013-08-28 00:20:00,
2013-08-27 17:25:00,78.9,56.4,29.83,SW,214,1.0,5.0,46,0.00,,,0.00,Wunderground v.1.15,2013-08-28 00:25:00,
2013-08-27 17:30:00,78.6,56.1,29.82,NNW,327,1.0,1.0,46,0.00,,,0.00,Wunderground v.1.15,2013-08-28 00:30:00,
2013-08-27 17:35:00,77.6,56.4,29.82,NNW,348,2.0,3.0,48,0.00,,,0.00,Wunderground v.1.15,2013-08-28 00:35:00,
2013-08-27 17:45:00,75.8,56.4,29.83,WNW,291,2.0,7.0,51,0.00,,,0.00,Wunderground v.1.15,2013-08-28 00:45:00,
2013-08-27 17:50:00,75.5,56.1,29.83,SW,230,1.0,1.0,51,0.00,,,0.00,Wunderground v.1.15,2013-08-28 00:50:00,
2013-08-27 17:55:00,75.4,56.0,29.83,WNW,288,1.0,4.0,51,0.00,,,0.00,Wunderground v.1.15,2013-08-28 00:55:00,
2013-08-27 18:00:00,75.1,55.2,29.83,West,261,1.0,11.0,50,0.00,,,0.00,Wunderground v.1.15,2013-08-28 01:00:00,
2013-08-27 18:10:00,74.8,56.0,29.83,West,265,1.0,5.0,52,0.00,,,0.00,Wunderground v.1.15,2013-08-28 01:10:00,
2013-08-27 18:15:00,74.2,56.0,29.83,WSW,243,1.0,6.0,53,0.00,,,0.00,Wunderground v.1.15,2013-08-28 01:15:00,
2013-08-27 18:20:00,73.3,56.2,29.83,NNW,329,2.0,8.0,55,0.00,,,0.00,Wunderground v.1.15,2013-08-28 01:20:00,
2013-08-27 18:25:00,72.6,56.0,29.82,WNW,302,3.0,8.0,56,0.00,,,0.00,Wunderground v.1.15,2013-08-28 01:25:00,
2013-08-27 18:35:00,71.5,56.4,29.83,WNW,284,2.0,9.0,59,0.00,,,0.00,Wunderground v.1.15,2013-08-28 01:35:00,
2013-08-27 18:40:00,71.0,56.4,29.83,NW,325,2.0,8.0,60,0.00,,,0.00,Wunderground v.1.15,2013-08-28 01:40:00,
2013-08-27 18:50:00,70.0,56.4,29.83,NNW,346,1.0,1.0,62,0.00,,,0.00,Wunderground v.1.15,2013-08-28 01:50:00,
2013-08-27 19:00:00,69.2,56.5,29.83,WSW,257,1.0,6.0,64,0.00,,,0.00,Wunderground v.1.15,2013-08-28 02:00:00,
2013-08-27 19:05:00,68.8,56.6,29.83,NNW,344,1.0,6.0,65,0.00,,,0.00,Wunderground v.1.15,2013-08-28 02:05:00,
2013-08-27 19:10:00,68.3,56.1,29.83,NNW,328,2.0,8.0,65,0.00,,,0.00,Wunderground v.1.15,2013-08-28 02:10:00,
2013-08-27 19:20:00,67.5,56.2,29.83,North,5,2.0,6.0,67,0.00,,,0.00,Wunderground v.1.15,2013-08-28 02:20:00,
2013-08-27 19:25:00,67.2,56.3,29.83,SSW,198,2.0,8.0,68,0.00,,,0.00,Wunderground v.1.15,2013-08-28 02:25:00,
2013-08-27 19:30:00,66.9,56.0,29.83,NNW,338,2.0,13.0,68,0.00,,,0.00,Wunderground v.1.15,2013-08-28 02:30:00,
2013-08-27 19:40:00,66.6,56.1,29.83,West,266,2.0,2.0,69,0.00,,,0.00,Wunderground v.1.15,2013-08-28 02:40:00,
2013-08-27 19:45:00,66.4,55.9,29.83,NW,317,1.0,3.0,69,0.00,,,0.00,Wunderground v.1.15,2013-08-28 02:45:00,
2013-08-27 20:00:00,65.6,55.9,29.84,NW,304,1.0,1.0,71,0.00,,,0.00,Wunderground v.1.15,2013-08-28 03:00:00,
2013-08-27 20:10:00,65.0,56.1,29.84,North,9,0.0,5.0,73,0.00,,,0.00,Wunderground v.1.15,2013-08-28 03:10:00,
2013-08-27 20:15:00,64.7,56.2,29.84,NW,313,0.0,5.0,74,0.00,,,0.00,Wunderground v.1.15,2013-08-28 03:15:00,
2013-08-27 20:20:00,64.5,56.4,29.84,NW,310,0.0,2.0,75,0.00,,,0.00,Wunderground v.1.15,2013-08-28 03:20:00,
2013-08-27 20:30:00,64.1,56.0,29.84,WNW,286,1.0,1.0,75,0.00,,,0.00,Wunderground v.1.15,2013-08-28 03:30:00,
2013-08-27 20:35:00,64.1,56.0,29.85,WNW,292,1.0,2.0,75,0.00,,,0.00,Wunderground v.1.15,2013-08-28 03:35:00,
2013-08-27 20:40:00,64.0,55.9,29.85,South,182,0.0,1.0,75,0.00,,,0.00,Wunderground v.1.15,2013-08-28 03:40:00,
2013-08-27 20:50:00,63.8,56.1,29.85,NW,304,0.0,3.0,76,0.00,,,0.00,Wunderground v.1.15,2013-08-28 03:50:00,
2013-08-27 20:55:00,63.7,56.0,29.85,NW,304,0.0,3.0,76,0.00,,,0.00,Wunderground v.1.15,2013-08-28 03:55:00,
2013-08-27 21:00:00,63.5,55.8,29.85,WSW,255,0.0,2.0,76,0.00,,,0.00,Wunderground v.1.15,2013-08-28 04:00:00,
2013-08-27 21:05:00,63.5,55.8,29.85,SSE,154,0.0,2.0,76,0.00,,,0.00,Wunderground v.1.15,2013-08-28 04:05:00,
2013-08-27 21:10:00,63.4,55.7,29.85,SSE,152,0.0,1.0,76,0.00,,,0.00,Wunderground v.1.15,2013-08-28 04:10:00,
2013-08-27 21:15:00,63.3,55.6,29.85,SSE,152,0.0,1.0,76,0.00,,,0.00,Wunderground v.1.15,2013-08-28 04:15:00,
2013-08-27 21:20:00,63.3,55.6,29.85,ESE,109,0.0,1.0,76,0.00,,,0.00,Wunderground v.1.15,2013-08-28 04:20:00,
2013-08-27 21:25:00,63.3,55.6,29.85,North,5,0.0,1.0,76,0.00,,,0.00,Wunderground v.1.15,2013-08-28 04:25:00,
2013-08-27 21:30:00,63.4,55.3,29.85,SSE,158,0.0,3.0,75,0.00,,,0.00,Wunderground v.1.15,2013-08-28 04:30:00,
2013-08-27 21:35:00,63.5,55.4,29.86,SSE,149,0.0,6.0,75,0.00,,,0.00,Wunderground v.1.15,2013-08-28 04:35:00,
2013-08-27 21:40:00,63.4,55.3,29.86,SSE,150,0.0,0.0,75,0.00,,,0.00,Wunderground v.1.15,2013-08-28 04:40:00,
2013-08-27 21:45:00,63.2,55.1,29.86,SSE,150,0.0,1.0,75,0.00,,,0.00,Wunderground v.1.15,2013-08-28 04:45:00,
2013-08-27 21:50:00,63.1,55.4,29.86,SSE,167,0.0,1.0,76,0.00,,,0.00,Wunderground v.1.15,2013-08-28 04:50:00,
2013-08-27 22:00:00,62.8,55.1,29.86,SSE,165,0.0,1.0,76,0.00,,,0.00,Wunderground v.1.15,2013-08-28 05:00:00,
2013-08-27 22:05:00,62.7,55.0,29.86,SSE,165,0.0,1.0,76,0.00,,,0.00,Wunderground v.1.15,2013-08-28 05:05:00,
2013-08-27 22:10:00,62.5,55.2,29.86,SSE,165,0.0,0.0,77,0.00,,,0.00,Wunderground v.1.15,2013-08-28 05:10:00,
2013-08-27 22:15:00,62.3,55.0,29.86,SSE,165,0.0,0.0,77,0.00,,,0.00,Wunderground v.1.15,2013-08-28 05:15:00,
2013-08-27 22:20:00,62.1,55.2,29.86,SSE,165,0.0,0.0,78,0.00,,,0.00,Wunderground v.1.15,2013-08-28 05:20:00,
2013-08-27 22:30:00,61.9,55.3,29.86,SSE,166,0.0,1.0,79,0.00,,,0.00,Wunderground v.1.15,2013-08-28 05:30:00,
2013-08-27 22:40:00,61.6,55.4,29.86,South,169,0.0,0.0,80,0.00,,,0.00,Wunderground v.1.15,2013-08-28 05:40:00,
2013-08-27 22:45:00,61.4,55.2,29.87,South,169,0.0,0.0,80,0.00,,,0.00,Wunderground v.1.15,2013-08-28 05:45:00,
2013-08-27 22:50:00,61.3,55.1,29.86,South,169,0.0,0.0,80,0.00,,,0.00,Wunderground v.1.15,2013-08-28 05:50:00,
2013-08-27 22:55:00,61.0,54.8,29.86,South,169,0.0,0.0,80,0.00,,,0.00,Wunderground v.1.15,2013-08-28 05:55:00,
2013-08-27 23:00:00,60.8,54.9,29.86,South,169,0.0,1.0,81,0.00,,,0.00,Wunderground v.1.15,2013-08-28 06:00:00,
2013-08-27 23:10:00,60.8,55.3,29.86,South,169,0.0,0.0,82,0.00,,,0.00,Wunderground v.1.15,2013-08-28 06:10:00,
2013-08-27 23:15:00,60.7,55.5,29.86,South,169,0.0,0.0,83,0.00,,,0.00,Wunderground v.1.15,2013-08-28 06:15:00,
2013-08-27 23:20:00,60.7,55.5,29.86,WNW,298,0.0,1.0,83,0.00,,,0.00,Wunderground v.1.15,2013-08-28 06:20:00,
2013-08-27 23:25:00,60.7,55.8,29.86,NW,304,0.0,1.0,84,0.00,,,0.00,Wunderground v.1.15,2013-08-28 06:25:00,
2013-08-27 23:35:00,60.4,55.5,29.86,NW,311,1.0,4.0,84,0.00,,,0.00,Wunderground v.1.15,2013-08-28 06:35:00,
2013-08-27 23:40:00,60.3,55.8,29.86,North,351,1.0,1.0,85,0.00,,,0.00,Wunderground v.1.15,2013-08-28 06:40:00,
2013-08-27 23:45:00,60.1,55.6,29.86,NNW,333,1.0,3.0,85,0.00,,,0.00,Wunderground v.1.15,2013-08-28 06:45:00,
2013-08-27 23:55:00,59.8,55.6,29.87,NNW,333,0.0,3.0,86,0.00,,,0.00,Wunderground v.1.15,2013-08-28 06:55:00,